TimeEST,TemperatureF,Dew PointF,Humidity,Sea Level PressureIn,VisibilityMPH,Wind Direction,Wind SpeedMPH,Gust SpeedMPH,PrecipitationIn,Events,Conditions,WindDirDegrees,DateUTC
12:53 AM,1.9,-2.0,83,30.35,10.0,NW,8.1,-,N/A,,Clear,320,2012-12-16 05:53:00
1:53 AM,1.9,-2.0,83,30.36,10.0,NNW,9.2,-,N/A,,Clear,330,2012-12-16 06:53:00
2:53 AM,1.9,-2.9,80,30.36,10.0,NW,6.9,-,N/A,,Clear,320,2012-12-16 07:53:00
3:53 AM,1.0,-2.9,83,30.35,10.0,NNW,11.5,-,N/A,,Clear,330,2012-12-16 08:53:00
4:26 AM,-0.4,-4.0,85,30.28,10.0,NNW,8.1,-,N/A,,Scattered Clouds,330,2012-12-16 09:26:00
4:34 AM,-0.4,-5.8,78,30.28,6.0,NW,6.9,-,N/A,,Mostly Cloudy,320,2012-12-16 09:34:00
4:53 AM,-0.0,-4.0,83,30.36,7.0,NW,9.2,-,N/A,,Overcast,320,2012-12-16 09:53:00
5:26 AM,-0.4,-4.0,85,30.30,10.0,NW,6.9,-,N/A,,Scattered Clouds,310,2012-12-16 10:26:00
5:53 AM,1.0,-2.9,83,30.38,10.0,NW,6.9,-,N/A,,Clear,310,2012-12-16 10:53:00
6:53 AM,-0.0,-4.0,83,30.36,10.0,NW,10.4,-,N/A,,Clear,320,2012-12-16 11:53:00
7:53 AM,-0.0,-5.1,79,30.37,10.0,NW,5.8,-,N/A,,Clear,320,2012-12-16 12:53:00
8:53 AM,3.9,-0.9,80,30.35,10.0,NNW,5.8,-,N/A,,Clear,330,2012-12-16 13:53:00
9:03 AM,5.0,-0.4,78,30.29,6.0,North,5.8,-,N/A,,Haze,350,2012-12-16 14:03:00
9:10 AM,3.2,-0.4,85,30.29,2.5,NNW,9.2,-,N/A,,Haze,340,2012-12-16 14:10:00
9:44 AM,6.8,1.4,79,30.28,4.0,NNW,8.1,-,N/A,,Haze,340,2012-12-16 14:44:00
9:53 AM,6.1,1.0,80,30.35,7.0,NNW,10.4,-,N/A,,Overcast,330,2012-12-16 14:53:00
10:23 AM,6.8,1.4,79,30.27,9.0,NW,8.1,-,N/A,,Mostly Cloudy,320,2012-12-16 15:23:00
10:40 AM,8.6,1.4,73,30.27,10.0,NW,6.9,-,N/A,,Scattered Clouds,320,2012-12-16 15:40:00
10:53 AM,9.0,3.0,77,30.34,10.0,NNW,6.9,-,N/A,,Clear,330,2012-12-16 15:53:00
11:53 AM,10.9,3.0,70,30.31,10.0,WNW,6.9,-,N/A,,Clear,290,2012-12-16 16:53:00
12:53 PM,14.0,3.9,64,30.30,10.0,West,4.6,-,N/A,,Clear,280,2012-12-16 17:53:00
1:53 PM,15.1,5.0,64,30.28,10.0,WNW,4.6,-,N/A,,Clear,290,2012-12-16 18:53:00
2:53 PM,15.1,3.9,61,30.27,10.0,Calm,Calm,-,N/A,,Clear,0,2012-12-16 19:53:00
3:53 PM,12.9,3.9,67,30.28,10.0,West,3.5,-,N/A,,Clear,260,2012-12-16 20:53:00
4:53 PM,12.2,3.2,67,30.22,10.0,WNW,3.5,-,N/A,,Clear,300,2012-12-16 21:53:00
5:53 PM,10.9,3.9,73,30.27,10.0,North,6.9,-,N/A,,Clear,360,2012-12-16 22:53:00
6:53 PM,10.0,3.9,76,30.28,10.0,WNW,4.6,-,N/A,,Clear,300,2012-12-16 23:53:00
7:53 PM,9.0,3.9,80,30.28,10.0,Calm,Calm,-,N/A,,Clear,0,2012-12-17 00:53:00
8:53 PM,8.1,3.9,83,30.27,10.0,NE,3.5,-,N/A,,Clear,50,2012-12-17 01:53:00
9:53 PM,9.0,3.9,80,30.28,10.0,Calm,Calm,-,N/A,,Clear,0,2012-12-17 02:53:00
10:53 PM,8.1,3.9,83,30.28,10.0,ENE,4.6,-,N/A,,Clear,70,2012-12-17 03:53:00
11:53 PM,7.0,3.9,87,30.28,10.0,East,4.6,-,N/A,,Clear,80,2012-12-17 04:53:00